Tracking 19242 objects as of 16-Aug-2018
HD Live streaming from Space Station
objects crossing your sky now

RADUGA 7

Track RADUGA 7 now!
RADUGA 7 is classified as:


NORAD ID: 12003
Int'l Code: 1980-081A
Perigee: 35,738.5 km
Apogee: 35,836.1 km
Inclination: 12.3 °
Period: 1,435.8 minutes
Semi major axis: 42158 km
RCS: 7.9432 m2 (large)
Launch date: October 5, 1980
Source: Commonwealth of Independent States (former USSR) (CIS)
Launch site: TYURATAM MISSILE AND SPACE COMPLEX (TTMTR)
aabbcc
Your satellite tracking list
Your tracking list is empty




NASA's NSSDC Master Catalog

Two Line Element Set (TLE):
1 12003U 80081A   18228.10536215 -.00000239  00000-0  00000+0 0  9991
2 12003  12.2755 320.5644 0011575 248.3450 124.1563  1.00294867 94720
Source of the keplerian elements: AFSPC